Hourly Data Report for October 06, 2017

All times are specified in Local Standard Time (LST). Add 1 hour to adjust for Daylight Saving Time where and when it is observed.

KUGAARUK CLIMATE
NUNAVUT

68°32'15.060" N
89°47'47.020" W
15.80 m
2303094
71407
NBB

Download Data

Hourly Data (October 2017)
Hourly Data Report for October 6, 2017
Temp Definition
°C
Dew Point Temp Definition
°C
Rel Hum Definition
%
Wind Dir Definition
10's deg

Wind Spd Definition
km/h
Visibility Definition
km
Stn Press Definition
kPa
Hmdx Definition


Wind Chill Definition


Weather Definition


TIME
00:00 -4.4 -5.7 91 1 24   99.85   -11 LegendNANA
01:00 -4.2 -5.3 92 36 26   99.90   -11 LegendNANA
02:00 -4.4 -5.4 93 2 14   99.92   -10 LegendNANA
03:00 -4.6 -5.6 93 6 18   99.94   -11 LegendNANA
04:00 -3.9 -4.9 92 1 13   99.96   -9 LegendNANA
05:00 -3.1 -4.0 93 35 14   99.95   -8 LegendNANA
06:00 -2.2 -3.1 94 35 21   99.94   -8 LegendNANA
07:00 -1.5 -2.3 94 1 15   99.95   -6 LegendNANA
08:00 -1.1 -2.3 92 5 13   99.96   -5 LegendNANA
09:00 -1.6 -2.4 95 7 13   100.00   -6 LegendNANA
10:00 -1.3 -2.5 91 7 16   100.03   -6 LegendNANA
11:00 -0.9 -2.4 89 7 21   100.07   -7 LegendNANA
12:00 -1.1 -2.7 89 8 24   100.09   -7 LegendNANA
13:00 -1.3 -3.1 88 8 23   100.14   -7 LegendNANA
14:00 -1.8 -3.3 89 8 22   100.17   -8 LegendNANA
15:00 -2.4 -4.0 89 8 13   100.24   -7 LegendNANA
16:00 -3.0 -4.6 89 9 15   100.28   -8 LegendNANA
17:00 -3.8 -5.2 90 4 5   100.33   -6 LegendNANA
18:00 -4.5 -5.7 91 8 4   100.35   -6 LegendNANA
19:00 -6.9 -7.9 93 4 7   100.38   -10 LegendNANA
20:00 -6.5 -7.5 93 8 5   100.40   -9 LegendNANA
21:00 -6.1 -6.8 95 12 8   100.42   -10 LegendNANA
22:00 -5.6 -6.2 95 10 7   100.43   -9 LegendNANA
23:00 -6.0 -6.7 95 32 3   100.46   -7 LegendNANA

Notes on Data Quality.

Legend

  • E = Estimated
  • M = Missing
  • NA = Not Available
  • ‡ = Partner data that is not subject to review by the National Climate Archives
Date modified: